I1GXV Weather Reports


time (UTC)temp
C
wind
direction
speed
KPH
gust
KPH
rain 1hr
cm
rain 24hr
cm
rain mn
cm
humidity
%
barometer
mb
20260506220011 12 48 8.0 20.9 0.03 1.70 0.00 90 985.5
20260506210010 12 47 4.8 16.1 0.00 1.68 1.68 88 985.3
20260506203013 13 49 6.4 16.1 0.00 1.68 1.68 89 985.2
20260506200010 13 26 4.8 12.9 0.00 1.68 1.68 89 984.7
20260506193010 12 58 3.2 9.7 0.00 1.68 1.68 90 984.6
20260506190014 12 34 3.2 14.5 0.00 1.70 1.68 90 984.0
20260506173009 13 306 3.2 9.7 0.00 1.88 1.65 79 982.7
20260506170011 15 47 4.8 20.9 0.00 2.01 1.65 71 982.4
20260506163011 15 31 12.9 32.2 0.00 2.13 1.65 70 982.0
20260506153008 15 50 20.9 37.0 0.00 2.24 1.65 68 981.8
20260506150012 15 46 20.9 35.4 0.00 2.24 1.65 69 981.9
20260506140009 14 50 14.5 33.8 0.00 2.24 1.65 78 982.1
20260506133011 15 46 14.5 27.4 0.00 2.24 1.65 73 982.6
20260506130015 13 56 9.7 20.9 0.00 2.24 1.65 84 982.3
20260506123012 11 40 9.7 29.0 0.79 2.24 1.65 94 982.5
20260506120018 11 297 6.4 32.2 0.79 2.24 1.65 92 982.0
20260506113014 15 210 8.0 38.6 0.00 1.47 0.86 85 981.8
20260506110010 15 146 20.9 37.0 0.00 1.52 0.86 85 981.4
20260506103009 14 158 8.0 27.4 0.00 1.52 0.86 90 981.9
20260506100009 14 146 16.1 37.0 0.00 1.57 0.86 89 982.0
20260506093010 13 136 20.9 37.0 0.00 1.57 0.86 94 981.8
20260506090009 13 139 17.7 33.8 0.00 1.57 0.86 97 981.7
20260506083011 12 141 27.4 38.6 0.00 1.63 0.86 99 982.0
20260506073010 12 85 14.5 22.5 0.00 1.68 0.86 99 982.4
20260506043007 12 55 8.0 12.9 0.51 2.51 0.69 99 983.3
20260506040008 12 26 3.2 8.0 0.00 2.06 0.18 99 983.3
20260506033007 11 26 3.2 11.3 0.03 2.06 0.18 99 983.4
20260506030006 11 33 4.8 9.7 0.03 2.06 0.18 99 983.8
20260506023012 12 33 4.8 11.3 0.00 2.03 0.15 99 984.6
20260506020011 11 30 1.6 8.0 0.00 2.03 0.15 99 984.8
20260506013012 11 29 3.2 9.7 0.00 2.03 0.15 99 984.6
20260506003010 11 21 3.2 4.8 0.00 2.03 0.15 99 985.5
20260506000008 11 29 0.0 3.2 0.05 2.03 0.15 99 985.6
20260505233011 11 27 1.6 3.2 0.13 2.03 0.15 99 986.1
20260505223015 11 24 3.2 8.0 0.03 1.91 0.03 99 986.4